Location: Brantley
(31.5822°N, 86.2569°W)
Time: 12:41:38
(UTC+00:00)

Vanguard 3 - Pass Details

Date: 25 February 2026
Orbit: 507 x 3205 km, 33.4° (Epoch: 17 March)

Event Time Altitude Azimuth Distance (km) Brightness Sun altitude
Rises 23:20:37 0° 282° (WNW) 5,590 12.8 3.2°
Reaches altitude 10° 23:25:01 10° 282° (WNW) 4,135 12.2 2.3°
Maximum altitude 23:35:04 85° 197° (SSW) 1,128 8.0 0.2°
Drops below altitude 10° 23:40:39 10° 108° (ESE) 2,374 9.0 -0.9°
Sets 23:42:35 0° 107° (ESE) 3,106 9.6 -1.3°
